Orbital Elements at Epoch 2459000.5 (2020-May-31.0) TDB
Reference: JPL 17 (heliocentric ecliptic J2000)
Element | Value | Uncertainty (1-sigma) | Units |
e | .1839034681127208 | 6.2822e-08 | |
a | 2.251125074206925 | 9.8433e-09 | au |
q | 1.837135365904765 | 1.4064e-07 | au |
i | 1.082159464506335 | 6.6937e-06 | deg |
node | .06185544900272984 | 0.00027635 | deg |
peri | 358.2950879233754 | 0.00027674 | deg |
M | 351.5173429607809 | 1.5537e-05 | deg |
tp | 2459029.568811298980 (2020-Jun-29.06881130) | 5.3335e-05 | TDB |
period | 1233.666764935758 3.38 | 8.0915e-06 2.215e-08 | d yr |
n | .291813000262471 | 1.914e-09 | deg/d |
Q | 2.665114782509084 | 1.1653e-08 | au |
|
| | Orbit Determination Parameters
Additional Information
|